Temperature
15 15 15 16 16 15 14 14 14 14 14 15 15 15 16 16 15 15 15 16 15 15 15 15 15 15 15 15 15 14 14 14 14 14 14 14 14 14 14 14 14 14 14 14
15 15 15 15 15 15 15 14 14 14 14 15 15 15 15 15 15 15 15 15 15 15 15 15 15 15 15 14 14 14 14 14 14 14 14 14 14 14 14 14 14 14 14 13
13 14 15 14 15 15 15 14 14 14 15 14 14 14 14 15 15 15 15 15 15 15 15 15 15 15 14 14 14 14 14 14 14 14 13 14 14 13 13 13 13 13 13 13
12 13 14 14 15 15 15 14 14 14 14 14 14 15 16 16 15 15 15 15 15 15 15 15 15 14 14 14 14 13 13 13 13 13 13 13 13 13 13 13 13 13 13 13
11 12 13 14 15 15 15 14 14 14 14 14 15 15 15 16 16 16 16 16 15 15 15 15 15 14 14 13 13 13 13 13 13 13 13 13 13 13 13 13 12 12 12 12
10 12 13 14 15 15 15 14 15 14 14 14 14 12 13 16 16 16 16 15 15 15 15 15 14 14 14 13 13 13 13 13 13 13 13 12 12 12 12 12 12 12 12 12
10 11 12 13 14 15 14 14 14 15 15 14 13 14 15 15 15 15 15 15 15 15 15 14 14 14 13 13 13 13 13 12 12 12 12 12 12 12 12 12 12 12 12 12
10 11 12 13 13 13 13 14 14 14 14 14 15 15 15 15 15 15 15 15 14 14 14 14 13 13 13 13 13 12 12 12 12 12 12 12 11 12 11 11 11 11 11 11
10 11 12 13 13 14 14 14 14 14 14 14 14 14 14 15 15 15 14 14 14 14 14 13 13 13 13 13 12 12 12 12 12 12 11 11 11 11 11 11 11 11 11 11
9 10 12 13 13 13 13 13 13 13 14 14 14 14 14 14 14 14 14 14 14 13 13 13 13 13 12 12 12 12 12 12 11 11 11 11 11 11 11 11 11 11 11 11
9 9 11 12 13 13 13 13 13 13 13 13 13 13 14 14 14 14 14 13 13 13 13 13 12 12 12 12 12 12 11 11 11 11 11 11 11 11 11 11 11 10 10 10
9 11 10 12 12 12 12 12 12 13 13 13 13 13 13 13 14 13 13 13 13 13 13 12 12 12 12 12 12 11 11 11 11 11 11 11 11 10 10 10 10 10 10 10
11 12 11 11 12 12 12 12 12 12 12 12 12 12 12 13 13 13 13 13 13 13 12 12 12 12 12 11 11 11 11 11 11 11 11 10 10 10 10 10 10 10 10 10
11 11 11 11 11 11 11 11 11 11 11 12 12 12 12 12 12 12 12 12 12 12 12 12 12 12 11 11 11 11 11 11 11 11 10 10 10 10 10 10 10 10 9 9
11 10 10 10 11 11 11 11 11 11 11 11 11 11 11 11 12 12 12 12 12 12 12 11 11 11 11 11 11 11 11 10 10 10 10 10 10 10 9 9 9 9 9 9
10 10 10 10 10 10 10 10 10 10 10 10 10 11 11 11 11 11 11 11 11 11 11 11 11 11 11 11 10 10 10 10 10 10 10 10 9 9 9 9 9 9 9 9
10 9 10 10 10 10 10 10 10 10 10 10 10 10 10 10 10 11 11 10 10 10 10 10 10 10 10 10 10 10 10 10 10 10 9 9 9 9 9 9 9 9 9 9
10 10 10 10 9 9 9 9 9 9 9 9 9 9 10 10 10 10 10 10 10 10 10 10 10 10 10 10 10 10 10 10 9 9 9 9 9 9 9 8 8 8 8 8
10 9 9 9 9 9 9 9 9 9 9 9 9 9 9 9 9 9 9 9 9 9 9 10 9 9 9 9 9 9 9 9 9 9 9 9 8 8 8 8 8 8 8 8
9 9 9 9 9 9 9 9 8 8 8 8 8 8 8 8 8 8 8 8 9 9 9 9 9 9 9 9 9 9 9 8 8 8 8 8 8 8 8 8 8 8 8 7
8 8 8 8 8 8 8 8 8 8 8 8 8 7 7 8 8 8 8 8 8 8 8 8 8 8 8 8 8 8 8 8 8 8 8 8 8 8 8 7 7 7 7 7
8 8 8 8 8 8 8 8 8 8 7 7 7 7 7 7 7 7 7 7 7 7 8 8 8 8 8 8 8 8 8 8 8 8 8 8 7 7 7 7 7 7 7 6
7 7 7 7 7 7 7 7 7 7 7 7 7 7 7 7 7 7 7 7 7 7 7 7 7 7 7 7 7 7 7 7 7 7 7 7 7 7 7 6 6 6 6 6
7 7 7 7 7 7 7 7 7 7 7 6 6 6 6 6 6 6 6 7 7 7 7 7 7 7 7 7 7 7 7 7 7 7 6 6 6 6 6 6 6 6 6 6
6 6 6 6 6 6 6 6 6 6 6 6 6 6 6 6 6 6 6 6 6 6 6 7 7 6 6 6 6 6 6 6 6 6 6 6 6 6 6 6 5 5 5 5
6 6 6 6 6 6 5 5 5 5 5 5 5 5 5 5 5 5 5 6 6 6 6 6 6 6 6 6 6 6 6 6 6 6 6 6 6 5 5 5 5 5 5 5
6 5 5 5 5 5 5 5 5 5 5 5 5 5 5 5 5 5 5 5 5 5 5 5 5 5 5 5 5 5 5 5 5 5 5 5 5 5 5 5 5 5 5 5
Wind_Speed
5 5 3 4 5 5 7 8 8 7 7 9 7 5 4 3 1 1 1 2 2 3 3 2 2 2 2 1 1 2 3 3 3 3 2 2 2 2 2 2 2 2 2 1
3 2 2 4 6 5 6 5 6 5 7 7 5 2 2 2 2 2 4 4 4 4 4 4 4 4 3 2 2 3 3 4 3 2 2 2 2 2 2 2 2 2 2 2
4 5 4 5 5 5 4 4 6 7 7 4 3 3 3 4 4 5 5 5 5 5 5 5 5 5 5 4 2 3 3 2 2 2 2 2 2 2 2 2 2 2 2 2
1 2 5 7 3 4 4 5 5 5 5 3 4 4 4 4 4 5 5 5 5 5 5 5 4 4 3 3 3 3 2 2 1 2 3 2 2 3 2 2 3 2 2 2
3 3 6 7 4 3 4 5 4 5 5 4 3 3 5 4 4 6 6 5 5 5 4 3 4 4 4 3 3 3 3 2 2 2 3 3 3 3 3 2 2 2 2 3
4 3 6 6 3 1 2 4 5 4 4 3 1 1 6 6 4 5 4 3 2 1 1 3 4 4 5 4 3 4 4 3 2 3 3 4 4 3 2 2 3 2 2 2
5 5 7 6 4 2 2 5 5 3 3 2 4 6 6 5 4 3 2 1 0 1 2 2 4 5 5 4 5 5 3 2 2 3 3 4 3 3 3 2 2 2 1 1
5 5 7 3 2 3 5 4 3 4 3 3 5 5 4 3 3 1 1 1 0 1 1 1 4 5 5 5 5 3 3 2 2 3 3 3 3 2 3 3 3 2 2 1
7 6 4 2 3 3 2 2 3 4 5 4 4 4 4 3 2 1 1 1 1 1 1 1 2 4 6 5 4 3 3 3 3 2 3 3 4 4 3 3 3 3 2 2
3 5 5 5 4 3 2 3 4 4 5 4 4 5 4 3 2 1 1 1 1 1 1 2 3 3 4 3 4 4 4 3 3 3 2 3 3 4 4 4 4 3 3 3
4 6 5 5 4 4 4 4 5 6 5 4 4 5 4 3 3 2 2 1 1 2 3 4 3 3 3 3 4 5 4 4 3 3 3 3 3 4 5 5 6 5 5 5
7 6 5 7 6 5 4 6 6 6 7 7 4 5 4 4 3 3 3 2 2 3 3 3 3 3 3 3 5 5 4 4 4 3 3 3 3 2 3 4 6 7 6 5
8 6 6 7 7 6 5 7 7 6 6 7 6 5 4 4 3 3 3 3 4 4 3 3 3 3 3 4 5 6 5 5 4 4 4 3 3 3 2 2 3 4 6 6
6 4 5 6 7 7 6 7 6 6 6 5 5 4 3 3 3 3 4 4 3 2 2 3 3 4 4 3 5 5 5 5 4 4 4 4 4 4 4 3 2 2 3 5
7 6 7 6 6 6 5 5 5 6 6 6 5 3 3 3 3 4 4 3 2 2 3 3 3 4 3 3 4 5 4 4 4 4 4 4 4 4 4 4 3 2 2 2
6 5 5 5 6 7 5 5 5 6 6 6 5 4 3 3 3 3 3 2 2 4 4 3 4 4 3 4 4 4 4 6 5 3 3 3 3 4 4 4 4 3 4 3
4 5 5 5 6 6 6 6 5 5 5 5 6 5 3 2 3 3 4 2 3 4 4 4 5 4 3 4 4 3 3 4 5 3 4 4 4 4 4 4 4 4 5 5
7 7 7 7 6 6 6 5 4 4 4 6 5 4 3 3 4 4 4 3 2 3 4 4 4 3 3 3 3 3 3 3 3 3 3 4 4 4 4 4 4 4 4 4
4 5 5 5 6 5 5 5 4 4 4 4 4 4 4 4 4 4 4 3 3 4 5 4 3 3 3 3 3 2 3 3 3 3 3 4 4 3 4 4 4 4 4 4
3 3 3 3 3 4 4 4 3 3 4 3 3 3 4 4 4 3 3 3 4 4 4 4 3 2 3 3 3 2 3 4 4 3 3 3 4 4 4 4 4 4 4 4
3 3 3 3 4 4 4 4 3 4 4 3 3 4 4 4 3 3 2 4 5 4 3 3 2 2 2 2 3 2 3 3 3 4 4 4 4 4 4 4 4 4 4 4
3 3 3 3 3 4 4 3 3 3 3 3 3 3 3 4 3 3 3 4 4 4 2 2 2 2 2 2 2 2 2 3 3 3 3 4 4 4 4 4 4 4 4 4
3 3 3 3 3 4 4 3 3 3 3 4 4 4 4 4 3 2 4 4 3 4 2 2 3 3 3 2 2 2 2 3 3 3 3 3 4 4 4 4 4 4 4 4
3 3 3 3 2 2 3 4 4 3 3 4 4 4 3 3 3 3 3 4 4 4 2 2 3 3 2 1 2 2 2 2 2 2 2 2 3 3 3 3 3 3 3 4
4 3 3 2 2 3 4 4 4 3 3 3 4 4 3 2 3 3 3 2 3 3 2 3 3 3 1 1 2 2 2 2 2 2 2 2 2 2 2 2 3 3 3 3
3 3 3 4 3 3 3 3 3 3 3 3 4 3 3 3 3 2 2 2 2 2 2 2 2 2 1 1 1 1 1 2 2 2 2 2 2 2 2 3 3 3 3 3
3 3 2 3 3 2 2 3 3 4 3 3 4 4 3 3 2 2 2 2 2 2 2 2 2 2 1 1 1 1 1 1 1 1 2 2 2 2 3 3 3 3 3 3
Wind_Direction
243 252 230 238 247 212 200 200 205 231 236 261 272 268 271 258 246 252 280 268 241 230 228 238 242 244 227 217 200 185 169 172 191 192 177 165 163 165 164 164 167 160 156 161
290 301 276 269 265 238 223 213 216 234 259 262 271 277 295 273 239 251 261 253 248 244 228 225 229 223 209 208 200 181 181 192 190 168 165 160 164 158 153 155 147 143 159 168
267 306 340 283 251 221 217 213 196 222 243 267 293 282 260 255 246 248 257 253 239 234 233 228 221 208 199 196 175 162 177 181 179 174 182 191 174 154 161 162 151 166 183 185
222 359 255 249 255 211 217 247 224 225 236 236 244 262 269 251 237 246 253 255 246 238 238 234 214 200 187 164 160 170 174 172 174 182 189 188 177 179 180 174 177 188 199 201
155 226 273 288 268 207 214 269 245 225 252 260 268 341 318 283 236 241 247 251 246 233 227 214 198 186 168 166 166 170 184 201 203 190 191 188 196 193 187 175 186 200 197 189
156 194 238 252 275 249 135 272 265 238 250 257 106 321 283 285 265 263 267 269 266 234 181 187 194 170 162 174 179 202 211 215 207 193 190 197 199 188 167 167 185 187 189 191
186 218 257 259 283 91 155 256 295 273 255 229 211 231 262 284 273 258 256 279 299 147 173 191 177 164 171 181 204 214 207 200 194 193 195 193 180 165 161 162 152 158 175 211
170 203 249 265 107 168 230 278 298 293 280 263 262 279 290 289 285 284 315 359 59 132 153 156 164 167 182 206 215 201 184 186 196 198 198 180 165 166 165 161 159 174 176 230
194 216 252 268 221 248 228 277 293 296 292 286 287 287 289 291 286 279 252 229 191 158 151 179 181 183 197 215 198 182 182 196 205 202 189 177 172 172 168 171 179 191 193 218
254 268 277 282 274 278 272 278 294 293 295 293 285 286 284 287 271 259 260 259 234 159 190 240 232 220 216 206 182 177 187 201 198 188 189 185 184 180 179 186 192 198 205 220
258 276 299 295 290 297 315 318 317 318 312 296 285 287 274 267 254 246 246 238 214 212 227 243 240 239 228 194 177 182 193 199 197 193 191 195 202 202 199 206 205 203 211 209
238 239 233 269 283 290 298 302 306 315 317 315 293 279 278 267 248 225 226 227 231 232 237 248 238 231 232 206 187 182 190 199 201 199 202 200 201 235 240 228 229 225 218 213
239 252 245 260 276 281 282 290 296 296 291 298 297 280 272 271 261 242 226 221 228 237 235 233 231 238 236 209 189 189 197 201 197 198 204 204 200 198 230 274 259 241 234 230
243 250 265 263 266 280 283 287 292 295 294 292 293 290 285 282 280 267 251 239 237 239 245 233 222 240 241 212 196 197 198 205 202 201 204 205 207 206 205 210 235 264 251 237
248 238 241 260 276 288 289 292 299 302 304 306 302 293 288 280 278 279 275 253 238 249 248 232 231 245 228 209 205 202 200 201 203 201 202 204 204 203 206 211 220 238 263 261
258 257 248 256 268 282 288 281 282 288 294 297 300 292 284 277 279 287 291 256 224 249 251 234 240 244 220 203 204 206 208 212 204 199 198 199 201 202 207 211 216 222 230 237
231 251 254 261 266 276 274 265 261 271 284 289 289 289 296 311 315 309 304 283 242 248 250 238 242 241 213 201 203 208 206 206 206 204 203 206 204 206 208 210 214 222 232 230
220 227 234 236 247 264 276 275 273 280 281 282 287 295 296 290 287 291 297 297 291 293 282 257 243 232 217 209 210 207 196 200 204 206 206 209 212 207 203 207 215 224 239 237
238 237 247 248 246 248 256 264 271 273 277 284 286 284 283 282 282 288 298 304 295 290 288 275 257 232 222 222 217 201 195 196 202 208 206 212 216 212 209 214 220 225 229 229
261 257 253 252 255 255 264 271 274 282 282 283 283 287 295 296 297 297 297 285 272 268 275 283 263 241 232 223 219 204 200 199 202 207 206 208 214 218 219 221 223 226 229 230
273 269 250 248 267 277 274 271 268 277 285 284 267 264 273 287 292 290 293 294 300 297 291 291 279 261 246 229 214 207 203 204 206 208 209 212 219 223 224 225 226 228 232 236
288 269 254 256 272 288 289 281 276 278 283 284 278 272 282 292 298 300 282 270 286 298 301 275 265 264 258 239 205 200 209 212 214 213 211 213 217 223 226 228 230 236 238 239
278 268 257 257 263 279 297 298 288 277 272 271 272 270 269 272 274 275 289 289 292 298 298 267 279 287 265 234 211 203 210 216 219 220 219 219 221 224 228 230 234 236 239 244
278 281 278 274 282 306 305 303 300 287 277 274 274 272 271 283 293 276 272 286 293 298 292 283 291 291 270 245 221 219 224 225 222 222 226 228 229 231 233 236 242 246 247 249
267 274 277 279 277 276 282 300 311 308 304 300 298 293 288 268 264 278 284 281 289 301 308 301 300 305 282 236 220 225 237 241 230 218 220 226 232 235 240 243 246 252 258 261
256 257 257 250 248 258 276 286 289 290 293 299 300 298 299 296 283 280 284 285 289 304 310 305 302 305 289 256 243 241 249 263 255 242 237 238 243 244 249 251 253 257 262 267
267 263 268 281 282 268 261 263 269 272 267 264 278 286 285 289 291 293 295 298 298 303 304 305 303 293 285 273 259 259 262 263 256 245 242 246 247 250 252 253 259 262 267 271
Height
1529 1526 1526 1526 1525 1526 1530 1532 1536 1531 1528 1520 1516 1514 1513 1512 1512 1511 1511 1511 1511 1511 1512 1513 1513 1514 1515 1517 1518 1519 1520 1521 1522 1523 1524 1524 1525 1526 1527 1527 1528 1529 1530 1530
1529 1526 1526 1526 1522 1522 1523 1524 1526 1525 1523 1514 1513 1512 1511 1511 1510 1509 1509 1509 1509 1509 1509 1510 1511 1511 1513 1514 1515 1516 1517 1518 1519 1520 1521 1522 1523 1524 1525 1525 1526 1527 1527 1528
1536 1530 1526 1529 1521 1519 1520 1519 1520 1522 1517 1512 1511 1510 1509 1508 1507 1507 1506 1506 1506 1506 1506 1507 1508 1509 1510 1512 1513 1513 1514 1516 1517 1517 1519 1519 1520 1521 1522 1523 1523 1524 1525 1525
1538 1534 1537 1524 1514 1513 1515 1514 1513 1512 1510 1510 1508 1507 1506 1505 1505 1504 1504 1503 1502 1502 1503 1504 1505 1507 1508 1509 1510 1511 1512 1513 1514 1515 1516 1517 1518 1519 1520 1520 1521 1521 1522 1523
1539 1538 1532 1520 1513 1512 1514 1513 1509 1509 1507 1506 1506 1505 1503 1502 1502 1502 1501 1500 1499 1499 1499 1500 1502 1503 1505 1506 1507 1508 1509 1510 1511 1512 1513 1514 1515 1516 1517 1518 1518 1519 1519 1520
1537 1536 1534 1519 1510 1508 1511 1514 1507 1506 1505 1504 1504 1508 1503 1499 1499 1498 1498 1497 1496 1496 1496 1497 1498 1500 1501 1502 1504 1505 1506 1508 1509 1510 1511 1512 1513 1514 1514 1515 1516 1516 1517 1518
1534 1533 1525 1513 1509 1509 1519 1516 1507 1505 1503 1503 1502 1502 1499 1497 1496 1495 1495 1495 1494 1493 1493 1494 1495 1497 1498 1499 1501 1502 1504 1505 1506 1507 1508 1509 1510 1511 1512 1513 1513 1514 1515 1515
1532 1532 1525 1509 1509 1512 1512 1507 1505 1503 1502 1501 1499 1497 1496 1494 1493 1493 1492 1492 1491 1491 1491 1492 1493 1494 1495 1496 1498 1500 1501 1502 1503 1504 1505 1506 1507 1508 1509 1510 1511 1511 1512 1512
1520 1518 1510 1507 1507 1507 1507 1505 1503 1502 1500 1499 1497 1495 1493 1492 1491 1491 1491 1490 1490 1490 1490 1490 1491 1492 1493 1494 1496 1497 1498 1499 1500 1501 1502 1503 1504 1505 1506 1507 1508 1508 1509 1509
1515 1510 1507 1506 1505 1504 1504 1503 1502 1500 1498 1497 1495 1493 1491 1490 1489 1489 1489 1488 1488 1488 1488 1488 1489 1490 1491 1492 1493 1494 1495 1496 1497 1498 1499 1500 1501 1502 1503 1504 1504 1505 1506 1506
1512 1508 1505 1503 1502 1502 1501 1500 1498 1497 1496 1494 1492 1490 1489 1488 1487 1487 1486 1486 1486 1486 1486 1486 1487 1487 1488 1489 1490 1491 1492 1493 1494 1495 1496 1497 1498 1499 1500 1501 1502 1502 1503 1503
1508 1504 1504 1502 1501 1500 1499 1497 1496 1494 1492 1491 1490 1488 1486 1485 1485 1484 1484 1484 1483 1483 1483 1483 1484 1484 1485 1485 1486 1487 1488 1489 1490 1491 1492 1493 1494 1495 1496 1497 1498 1499 1499 1500
1501 1500 1500 1499 1498 1498 1496 1495 1493 1492 1490 1488 1486 1485 1484 1483 1482 1481 1481 1480 1480 1480 1480 1480 1480 1481 1481 1482 1483 1484 1484 1485 1486 1487 1488 1489 1490 1490 1491 1493 1494 1494 1495 1495
1497 1497 1496 1495 1495 1494 1493 1491 1490 1489 1487 1485 1483 1482 1481 1480 1479 1478 1477 1477 1477 1477 1477 1477 1477 1477 1478 1478 1479 1479 1480 1481 1482 1483 1484 1485 1486 1486 1487 1488 1488 1489 1490 1491
1492 1493 1492 1491 1491 1490 1489 1488 1486 1484 1483 1481 1480 1478 1477 1476 1475 1475 1474 1474 1474 1474 1473 1473 1473 1473 1474 1475 1475 1476 1476 1477 1478 1479 1480 1481 1481 1482 1483 1483 1484 1485 1485 1486
1487 1487 1487 1487 1486 1485 1485 1484 1482 1481 1480 1478 1477 1476 1474 1473 1472 1472 1471 1470 1470 1469 1469 1469 1469 1470 1470 1470 1471 1471 1472 1473 1474 1475 1475 1476 1477 1477 1478 1479 1479 1480 1480 1481
1483 1483 1482 1482 1482 1481 1481 1480 1479 1478 1477 1475 1474 1473 1471 1470 1469 1468 1467 1467 1467 1466 1466 1465 1465 1466 1466 1466 1467 1467 1467 1468 1469 1470 1470 1471 1472 1473 1474 1474 1475 1475 1476 1476
1479 1479 1479 1478 1478 1477 1477 1476 1475 1474 1473 1472 1471 1469 1467 1466 1465 1465 1464 1464 1463 1462 1462 1462 1462 1462 1462 1462 1462 1462 1463 1464 1464 1465 1466 1467 1468 1468 1469 1469 1470 1470 1471 1471
1474 1475 1475 1474 1474 1474 1473 1472 1471 1471 1470 1469 1467 1466 1465 1463 1462 1462 1461 1460 1459 1458 1458 1458 1458 1458 1458 1458 1458 1459 1459 1459 1460 1461 1462 1462 1463 1464 1464 1464 1465 1465 1465 1465
1471 1471 1471 1471 1470 1470 1469 1468 1467 1467 1466 1465 1464 1462 1461 1460 1459 1458 1457 1456 1455 1454 1454 1454 1454 1454 1454 1454 1455 1454 1455 1455 1455 1456 1457 1457 1458 1458 1459 1459 1459 1459 1460 1460
1467 1467 1467 1467 1467 1466 1465 1465 1463 1463 1462 1461 1460 1459 1458 1456 1455 1454 1453 1451 1451 1452 1451 1451 1451 1450 1450 1451 1451 1450 1450 1451 1451 1452 1452 1452 1453 1453 1453 1454 1454 1454 1454 1454
1464 1464 1463 1463 1463 1462 1461 1461 1460 1459 1458 1457 1456 1455 1454 1452 1452 1451 1450 1449 1448 1448 1447 1447 1446 1446 1447 1447 1447 1446 1446 1447 1447 1447 1447 1448 1448 1448 1448 1448 1448 1448 1448 1448
1462 1461 1460 1460 1459 1458 1457 1457 1456 1455 1454 1453 1452 1451 1450 1449 1448 1447 1446 1446 1445 1444 1443 1443 1443 1443 1443 1442 1442 1442 1442 1442 1443 1443 1443 1443 1443 1443 1443 1443 1443 1443 1443 1443
1459 1458 1457 1456 1456 1454 1453 1453 1452 1451 1450 1449 1448 1448 1447 1445 1444 1444 1443 1443 1442 1441 1440 1440 1439 1439 1439 1438 1438 1438 1438 1438 1438 1438 1439 1439 1438 1438 1438 1438 1438 1438 1438 1438
1455 1454 1454 1453 1452 1451 1450 1449 1448 1447 1446 1445 1444 1444 1443 1442 1442 1441 1440 1439 1439 1438 1437 1436 1436 1435 1435 1435 1434 1434 1434 1434 1435 1434 1434 1434 1434 1434 1434 1433 1433 1433 1432 1432
1451 1451 1450 1450 1449 1448 1447 1446 1445 1444 1443 1441 1441 1441 1440 1439 1439 1438 1437 1436 1435 1434 1433 1433 1432 1432 1431 1431 1431 1431 1431 1431 1431 1430 1430 1430 1430 1430 1429 1429 1429 1428 1428 1427
1448 1447 1447 1446 1446 1445 1444 1443 1442 1441 1440 1439 1438 1437 1437 1436 1435 1434 1433 1433 1432 1431 1430 1430 1429 1428 1428 1428 1427 1427 1427 1427 1426 1426 1426 1425 1425 1425 1424 1424 1424 1423 1423 1422